COSMOS 864 DEB, 43294

Orbit data source: Space-Track

COSMOS 864 DEB, 43294 is space debris in LEO originally from a launch on Fri, 29 Oct 1976 UTC launched from the Plesetsk Missile And Space Complex (PKMTR). Debris objects in space refer to the collection of defunct objects orbiting the Earth. Examples of debris include non-operational satellites, rocket bodies, and fragments generated from explosions, collisions, or faulty payload assembly.

Loading next visibility...
Identifier
43294, 1976-108C
Orbit
LEO
Country
Flag of CISCIS
Related business
Manufacturer
Unknown
Mission
Spacecraft
Bus & Motor
Unknown
Mass
Unknown
Launch date (UTC)
1976-10-29 (50 years ago)
Launch vehicle
Unknown
Launch site
Plesetsk Missile And Space Complex (PKMTR)
Object type
Payload
Rocket body
Debris
Shape & HBR
Unknown shape, 0.2 m
Radar Cross Section
Medium (>0.1 m² and <1 m²)

Expand to show TLE details & history
Last TLE update: 2 days ago

TLE from 2 days ago
0 COSMOS 864 DEB
1 43294U 76108C   26171.41923324  .00000095  00000-0  81294-4 0  9991
2 43294  82.9405 146.2419 0031032 129.4548 230.9362 13.76077414625256
Epoch: 2026-06-20T10:03Z
TLE epoch observation values (Epoch: 2026-06-20T10:03:41.751Z)
Latitude
-0.00005°
Longitude
86.6838°
Altitude
995.164 km
Speed
7.347 km/s
True Right ascension
09h 44m 58s
True Declination
0° 00' 00"
Sunlit
Object was in daylight at epoch
Visualization orbit readout
Latitude
Unknown
Longitude
Unknown
Altitude
Unknown
Speed
Unknown
Apparent Right ascension
Unknown
Apparent Declination
Unknown
Sunlit
N/A
Visualization observer readout
Local Sidereal Time
23:07:43
Azimuth
Unknown
Elevation
Unknown
Doppler factor
Unknown
Orbital elements
Apogee altitude
997.798 km
Perigee altitude
952.162 km
Semi-major axis
7,353.117 km
Eccentricity
0.0031
Inclination
82.9405°
RAAN
146.2419°
Arg. of periapsis
129.4548°
True anomaly
230.66077°
Mean anomaly
230.9362°
Eccentric anomaly
230.79842°
Mean motion
3.4422 °/min
Orbital period
104.58 mins
BSTAR
0.000081294
Loading maneuver chart data...
Computing Atmospheric mass density...
Loading historical data...
Loading historical data...
Loading historical data...
Loading historical data...
Loading historical data...
Loading historical data...
Loading historical data...
Other satellites on launch #108 in the year 1976 (1976-10-29 UTC)

Documentation

Showing up to 5 results
|